Meadow Lake, CO

3:33 PM MDT on June 27, 2017 (GMT -0600)
Meadow Lake

Weather History for KFLY - March, 2014

Change the Weather History Date:

Saturday, March 8, 2014

  Actual Average (KCOS) Record (KCOS)
Temperature  
Mean Temperature 34 °F -  
Max Temperature 42 °F 52 °F 70 °F (1955)
Min Temperature 26 °F 24 °F 0 °F (1964)
Degree Days  
Heating Degree Days 31    
Moisture  
Dew Point 24 °F    
Average Humidity 73    
Maximum Humidity 95    
Minimum Humidity 41    
Precipitation  
Precipitation 0.00 in - - ()
Sea Level Pressure  
Sea Level Pressure 30.27 in    
Wind  
Wind Speed 8 mph (NNW)    
Max Wind Speed 14 mph    
Max Gust Speed 20 mph    
Visibility 10 miles    
Events Snow    
Averages and records for this station are not official NWS values.
T = Trace of Precipitation, MM = Missing Value Source: NWS Daily Summary

Daily Weather History Graph

Daily Weather History Graph

Search for Another Location

Airport or City:

Trip Planner

Search our weather history database for the weather conditions in past years. The results will help you decide how hot, cold, wet, or windy it might be!

Date:

Astronomy

Mar. 08, 2014 Rise Set
Actual Time 6:20 AM MST 5:58 PM MST
Civil Twilight 5:53 AM MST 6:24 PM MST
Nautical Twilight 5:22 AM MST 6:55 PM MST
Astronomical Twilight 4:51 AM MST 7:26 PM MST
Moon 11:06 AM MST (3/8) 12:55 AM MST (3/8)
Length of Visible Light 12h 31m
Length of Day
11h 38m
First Quarter, 52% of the Moon is Illuminated
Mar 8
First Quarter
Mar 16
Full
Mar 23
Last Quarter
Mar 30
New
Apr 7
First Quarter

Hourly Weather History & Observations

Time (MST) Temp. Windchill Dew Point Humidity Pressure Visibility Wind Dir Wind Speed Gust Speed Precip Events Conditions
12:10 AM 29.7 °F 22.0 °F 28.2 °F 94% 30.15 in 5.0 mi North 8.1 mph - N/A Snow Light Snow
12:30 AM 29.7 °F 22.8 °F 28.2 °F 94% 30.16 in 5.0 mi North 6.9 mph - N/A Snow Light Snow
12:50 AM 29.7 °F 21.3 °F 28.2 °F 94% 30.16 in 4.0 mi North 9.2 mph - N/A Snow Light Snow
1:10 AM 29.3 °F 20.8 °F 28.0 °F 95% 30.16 in 5.0 mi North 9.2 mph - N/A Snow Light Snow
1:30 AM 29.3 °F 21.5 °F 27.5 °F 93% 30.16 in 5.0 mi North 8.1 mph - N/A Snow Light Snow
1:50 AM 29.1 °F 21.3 °F 27.5 °F 94% 30.16 in 5.0 mi NNW 8.1 mph - N/A Snow Light Snow
2:10 AM 29.3 °F 24.3 °F 27.5 °F 93% 30.16 in 7.0 mi NNW 4.6 mph - N/A   Overcast
2:30 AM 29.1 °F 20.6 °F 26.8 °F 91% 30.16 in 10.0 mi NNW 9.2 mph 16.1 mph N/A   Overcast
2:50 AM 28.4 °F 19.1 °F 26.4 °F 92% 30.16 in 10.0 mi NNW 10.4 mph - N/A   Mostly Cloudy
3:10 AM 28.4 °F 18.5 °F 26.2 °F 92% 30.16 in 10.0 mi NNW 11.5 mph - N/A   Scattered Clouds
3:30 AM 28.0 °F 18.6 °F 25.7 °F 91% 30.17 in 10.0 mi North 10.4 mph - N/A   Scattered Clouds
3:50 AM 28.4 °F 20.4 °F 26.6 °F 93% 30.17 in 10.0 mi North 8.1 mph - N/A   Scattered Clouds
4:10 AM 28.8 °F 19.5 °F 26.4 °F 91% 30.18 in 10.0 mi NNW 10.4 mph - N/A   Mostly Cloudy
4:30 AM 28.9 °F 19.2 °F 26.4 °F 90% 30.19 in 10.0 mi NNW 11.5 mph - N/A   Scattered Clouds
4:50 AM 28.8 °F 20.9 °F 25.7 °F 88% 30.20 in 10.0 mi North 8.1 mph - N/A   Scattered Clouds
5:10 AM 28.4 °F 19.1 °F 25.7 °F 90% 30.21 in 10.0 mi NNW 10.4 mph 16.1 mph N/A   Mostly Cloudy
5:30 AM 28.4 °F 18.0 °F 25.7 °F 90% 30.21 in 10.0 mi North 12.7 mph 18.4 mph N/A   Mostly Cloudy
5:50 AM 28.9 °F 18.2 °F 25.7 °F 88% 30.22 in 10.0 mi NNW 13.8 mph 19.6 mph N/A   Scattered Clouds
6:10 AM 28.4 °F 20.4 °F 25.7 °F 90% 30.22 in 10.0 mi NNW 8.1 mph - N/A   Clear
6:29 AM 27.9 °F 17.8 °F 25.3 °F 90% 30.23 in 10.0 mi NNW 11.5 mph 17.3 mph N/A   Clear
6:50 AM 28.0 °F 17.0 °F 25.7 °F 91% 30.24 in 10.0 mi NW 13.8 mph - N/A   Clear
7:10 AM 30.2 °F 19.8 °F 27.1 °F 88% 30.24 in 10.0 mi NW 13.8 mph 19.6 mph N/A   Clear
7:30 AM 31.1 °F 21.4 °F 27.1 °F 85% 30.25 in 10.0 mi NW 12.7 mph 18.4 mph N/A   Clear
7:50 AM 31.6 °F 23.1 °F 26.8 °F 82% 30.26 in 10.0 mi NW 10.4 mph - N/A   Clear
8:10 AM 32.5 °F 24.8 °F 26.8 °F 79% 30.27 in 10.0 mi NW 9.2 mph - N/A   Clear
8:30 AM 34.0 °F 28.0 °F 27.1 °F 76% 30.28 in 10.0 mi NW 6.9 mph - N/A   Clear
8:50 AM 34.3 °F 27.0 °F 25.9 °F 71% 30.28 in 10.0 mi NW 9.2 mph - N/A   Clear
9:09 AM 35.2 °F 28.1 °F 26.1 °F 69% 30.29 in 10.0 mi NW 9.2 mph - N/A   Clear
9:30 AM 35.8 °F 30.9 °F 26.1 °F 68% 30.29 in 10.0 mi NNW 5.8 mph - N/A   Clear
9:50 AM 36.7 °F 30.5 °F 26.4 °F 66% 30.30 in 10.0 mi NNW 8.1 mph - N/A   Clear
10:10 AM 36.5 °F 29.2 °F 25.7 °F 65% 30.31 in 10.0 mi North 10.4 mph 16.1 mph N/A   Clear
10:30 AM 36.1 °F 28.2 °F 25.9 °F 66% 30.31 in 10.0 mi North 11.5 mph - N/A   Clear
10:50 AM 35.8 °F 28.3 °F 26.6 °F 69% 30.32 in 10.0 mi North 10.4 mph - N/A   Clear
11:10 AM 37.4 °F 29.8 °F 26.4 °F 65% 30.32 in 10.0 mi North 11.5 mph - N/A   Clear
11:30 AM 37.9 °F 32.1 °F 26.6 °F 64% 30.32 in 10.0 mi North 8.1 mph - N/A   Clear
11:50 AM 38.8 °F 32.6 °F 27.5 °F 64% 30.31 in 10.0 mi NNE 9.2 mph - N/A   Clear
12:10 PM 39.2 °F 33.0 °F 26.1 °F 59% 30.30 in 10.0 mi North 9.2 mph - N/A   Clear
12:30 PM 40.1 °F 34.1 °F 25.5 °F 56% 30.30 in 10.0 mi North 9.2 mph - N/A   Clear
12:50 PM 40.5 °F 34.6 °F 24.1 °F 52% 30.30 in 10.0 mi North 9.2 mph - N/A   Scattered Clouds
1:10 PM 39.6 °F 34.7 °F 23.4 °F 52% 30.30 in 10.0 mi NNE 6.9 mph - N/A   Scattered Clouds
1:30 PM 40.6 °F 34.8 °F 23.7 °F 51% 30.29 in 10.0 mi North 9.2 mph - N/A   Scattered Clouds
1:50 PM 41.0 °F 34.7 °F 22.3 °F 47% 30.29 in 10.0 mi North 10.4 mph - N/A   Clear
2:10 PM 40.3 °F 35.5 °F 22.1 °F 48% 30.30 in 10.0 mi North 6.9 mph - N/A   Clear
2:30 PM 41.0 °F 36.4 °F 21.6 °F 46% 30.30 in 10.0 mi NNE 6.9 mph - N/A   Clear
2:50 PM 41.5 °F 35.9 °F 20.8 °F 44% 30.29 in 10.0 mi North 9.2 mph 17.3 mph N/A   Clear
3:10 PM 41.9 °F 36.9 °F 21.7 °F 45% 30.29 in 10.0 mi North 8.1 mph - N/A   Clear
3:30 PM 41.5 °F 37.8 °F 20.3 °F 43% 30.29 in 10.0 mi North 5.8 mph - N/A   Clear
3:50 PM 41.9 °F 38.2 °F 20.8 °F 43% 30.29 in 10.0 mi North 5.8 mph - N/A   Clear
4:10 PM 42.4 °F - 20.1 °F 41% 30.29 in 10.0 mi Calm Calm - N/A   Clear
4:30 PM 41.9 °F 39.0 °F 21.0 °F 43% 30.29 in 10.0 mi NNE 4.6 mph - N/A   Clear
4:50 PM 41.9 °F 40.0 °F 21.0 °F 43% 30.29 in 10.0 mi ENE 3.5 mph - N/A   Clear
5:10 PM 40.5 °F - 21.2 °F 46% 30.30 in 10.0 mi Calm Calm - N/A   Clear
5:30 PM 38.7 °F 35.2 °F 21.7 °F 51% 30.30 in 10.0 mi NE 4.6 mph - N/A   Clear
5:49 PM 36.5 °F 33.9 °F 22.1 °F 56% 30.30 in 10.0 mi NNE 3.5 mph - N/A   Clear
6:10 PM 35.6 °F - 22.6 °F 59% 30.30 in 10.0 mi Calm Calm - N/A   Clear
6:30 PM 33.8 °F - 23.7 °F 67% 30.32 in 10.0 mi Calm Calm - N/A   Clear
6:50 PM 29.8 °F - 23.4 °F 77% 30.32 in 10.0 mi Calm Calm - N/A   Clear
7:10 PM 30.0 °F - 22.8 °F 75% 30.32 in 10.0 mi Calm Calm - N/A   Clear
7:30 PM 29.3 °F - 22.8 °F 77% 30.33 in 10.0 mi Calm Calm - N/A   Clear
7:50 PM 28.0 °F - 23.0 °F 81% 30.32 in 10.0 mi Calm Calm - N/A   Clear
8:10 PM 27.3 °F - 22.8 °F 83% 30.32 in 10.0 mi Calm Calm - N/A   Clear
8:30 PM 27.1 °F 23.2 °F 21.9 °F 81% 30.32 in 10.0 mi West 3.5 mph - N/A   Clear
8:50 PM 27.9 °F 21.5 °F 21.9 °F 78% 30.33 in 10.0 mi WNW 5.8 mph - N/A   Clear
9:10 PM 27.7 °F 22.4 °F 21.9 °F 79% 30.33 in 10.0 mi West 4.6 mph - N/A   Clear
9:30 PM 29.3 °F 24.3 °F 21.9 °F 74% 30.33 in 10.0 mi WSW 4.6 mph - N/A   Clear
9:50 PM 29.8 °F 23.9 °F 21.7 °F 72% 30.32 in 10.0 mi West 5.8 mph - N/A   Clear
10:10 PM 27.5 °F 21.1 °F 21.2 °F 77% 30.33 in 10.0 mi West 5.8 mph - N/A   Clear
10:30 PM 28.0 °F 21.7 °F 21.4 °F 76% 30.32 in 10.0 mi West 5.8 mph - N/A   Clear
10:50 PM 27.3 °F 22.0 °F 21.2 °F 78% 30.32 in 10.0 mi West 4.6 mph - N/A   Clear
11:10 PM 26.6 °F 20.0 °F 21.2 °F 80% 30.32 in 10.0 mi West 5.8 mph - N/A   Clear
11:30 PM 26.4 °F 18.9 °F 21.2 °F 81% 30.30 in 10.0 mi West 6.9 mph - N/A   Clear
11:50 PM 27.3 °F 19.9 °F 21.9 °F 80% 30.30 in 10.0 mi West 6.9 mph - N/A   Clear